Tracking 29892 objects as of 21-Nov-2024
HD Live streaming from Space Station
objects crossing your sky now

COSMOS 970 DEB

Track COSMOS 970 DEB now!
10-day predictions


NORAD ID: 18998
Int'l Code: 1977-121BS
Perigee: 893.3 km
Apogee: 1,071.0 km
Inclination: 65.8 °
Period: 104.6 minutes
Semi major axis: 7353 km
RCS: 0.0054 m2 (small)
Launch date: December 21, 1977
Source: Commonwealth of Independent States (former USSR) (CIS)
Launch site: TYURATAM MISSILE AND SPACE COMPLEX (TTMTR)

Note: This is SATELLITE DEBRIS
Your satellite tracking list
Your tracking list is empty




NASA's NSSDC Master Catalog

Two Line Element Set (TLE):
1 18998U 77121BS  24323.23483802  .00000563  00000-0  61941-3 0  9995
2 18998  65.8277  36.2155 0120874  42.0142 353.4301 13.76864383861349
Source of the keplerian elements: AFSPC